TimeMDT,TemperatureF,Dew PointF,Humidity,Sea Level PressureIn,VisibilityMPH,Wind Direction,Wind SpeedMPH,Gust SpeedMPH,PrecipitationIn,Events,Conditions,WindDirDegrees,DateUTC
12:53 AM,43.0,34.0,71,30.10,10.0,South,3.5,-,N/A,,Partly Cloudy,170,2012-11-03 06:53:00
1:53 AM,44.1,35.1,71,30.10,10.0,Calm,Calm,-,N/A,,Partly Cloudy,0,2012-11-03 07:53:00
2:53 AM,39.9,34.0,79,30.11,10.0,SSE,3.5,-,N/A,,Partly Cloudy,150,2012-11-03 08:53:00
3:53 AM,42.1,33.1,70,30.12,10.0,South,4.6,-,N/A,,Partly Cloudy,170,2012-11-03 09:53:00
4:53 AM,39.9,32.0,73,30.11,10.0,SSE,8.1,-,N/A,,Partly Cloudy,150,2012-11-03 10:53:00
5:53 AM,39.0,32.0,76,30.13,10.0,SE,5.8,-,N/A,,Partly Cloudy,140,2012-11-03 11:53:00
6:53 AM,39.9,32.0,73,30.16,10.0,SE,6.9,-,N/A,,Clear,130,2012-11-03 12:53:00
7:53 AM,39.0,32.0,76,30.18,10.0,SE,6.9,-,N/A,,Scattered Clouds,130,2012-11-03 13:53:00
8:53 AM,42.1,34.0,73,30.19,10.0,SSE,6.9,-,N/A,,Scattered Clouds,160,2012-11-03 14:53:00
9:53 AM,48.0,36.0,63,30.19,10.0,SE,6.9,-,N/A,,Mostly Cloudy,140,2012-11-03 15:53:00
10:53 AM,52.0,35.1,53,30.20,10.0,SE,4.6,-,N/A,,Mostly Cloudy,130,2012-11-03 16:53:00
11:53 AM,55.9,34.0,44,30.20,10.0,Calm,Calm,-,N/A,,Mostly Cloudy,0,2012-11-03 17:53:00
12:53 PM,60.1,33.1,36,30.19,10.0,Calm,Calm,-,N/A,,Mostly Cloudy,0,2012-11-03 18:53:00
1:53 PM,62.1,35.1,37,30.16,10.0,Calm,Calm,-,N/A,,Mostly Cloudy,0,2012-11-03 19:53:00
2:53 PM,62.1,35.1,37,30.17,10.0,North,3.5,-,N/A,,Scattered Clouds,10,2012-11-03 20:53:00
3:53 PM,62.1,35.1,37,30.14,10.0,NW,5.8,-,N/A,,Scattered Clouds,320,2012-11-03 21:53:00
4:53 PM,62.1,33.1,34,30.15,10.0,NNW,5.8,-,N/A,,Scattered Clouds,340,2012-11-03 22:53:00
5:53 PM,59.0,36.0,42,30.17,10.0,NW,6.9,-,N/A,,Scattered Clouds,310,2012-11-03 23:53:00
6:53 PM,52.0,42.1,69,30.20,10.0,NW,5.8,-,N/A,,Scattered Clouds,320,2012-11-04 00:53:00
7:53 PM,48.9,41.0,74,30.23,10.0,WNW,5.8,-,N/A,,Scattered Clouds,290,2012-11-04 01:53:00
8:53 PM,48.9,42.1,77,30.22,10.0,Calm,Calm,-,N/A,,Partly Cloudy,0,2012-11-04 02:53:00
9:53 PM,48.0,37.0,66,30.22,10.0,SE,6.9,-,N/A,,Partly Cloudy,140,2012-11-04 03:53:00
10:53 PM,46.9,34.0,61,30.22,10.0,SE,3.5,-,N/A,,Clear,140,2012-11-04 04:53:00
11:53 PM,45.0,34.0,65,30.22,10.0,SE,6.9,-,N/A,,Clear,140,2012-11-04 05:53:00